FW5169 Weather Reports


time (UTC)temp
C
wind
direction
speed
KPH
gust
KPH
rain 1hr
cm
rain 24hr
cm
rain mn
cm
humidity
%
barometer
mb
20260906123331 22 5 1.6 6.4 0.03 0.05 0.03 95 1019.1
20260906121855 22 15 3.2 8.0 0.00 0.03 0.00 95 1019.0
20260906120321 21 52 1.6 6.4 0.00 0.03 0.00 96 1018.6
20260906114828 21 352 1.6 8.0 0.00 0.03 0.00 96 1018.6
20260906113336 21 30 1.6 4.8 0.00 0.03 0.00 97 1018.1
20260906111819 21 22 1.6 9.7 0.00 0.03 0.00 96 1017.8
20260906110332 21 25 3.2 6.4 0.00 0.03 0.00 96 1017.9
20260906104835 21 47 1.6 6.4 0.00 0.03 0.00 96 1017.6
20260906103320 21 17 3.2 9.7 0.00 0.03 0.00 96 1017.5
20260906101829 21 17 3.2 9.7 0.00 0.03 0.00 96 1017.5
20260906100334 21 52 4.8 9.7 0.00 0.03 0.00 96 1017.4
20260906094836 21 17 4.8 11.3 0.00 0.03 0.00 96 1017.5
20260906093325 21 19 8.0 11.3 0.00 0.03 0.00 96 1017.4
20260906091829 21 77 6.4 11.3 0.00 0.03 0.00 95 1017.3
20260906090335 21 45 3.2 6.4 0.00 0.03 0.00 95 1017.3
20260906084822 21 46 3.2 8.0 0.00 0.03 0.00 95 1017.5
20260906083329 21 22 3.2 8.0 0.00 0.03 0.00 95 1017.7
20260906081834 21 20 4.8 9.7 0.00 0.03 0.00 95 1017.6
20260906080323 21 30 6.4 11.3 0.00 0.03 0.00 95 1017.5
20260906074826 21 25 3.2 9.7 0.00 0.03 0.00 96 1017.5
20260906073332 21 34 4.8 9.7 0.00 0.03 0.00 96 1017.6
20260906071818 21 21 4.8 8.0 0.00 0.03 0.00 95 1017.9
20260906070322 21 15 3.2 6.4 0.00 0.03 0.00 95 1017.7
20260906064847 21 26 1.6 8.0 0.00 0.03 0.00 95 1017.9
20260906063351 21 347 3.2 9.7 0.00 0.03 0.00 95 1017.6
20260906061817 21 54 6.4 12.9 0.00 0.03 0.00 94 1017.8
20260906060345 21 354 4.8 12.9 0.00 0.03 0.00 94 1017.9
20260906054824 21 21 4.8 14.5 0.00 0.03 0.00 95 1018.0
20260906053334 21 19 6.4 16.1 0.00 0.03 0.00 95 1017.8
20260906051838 22 46 3.2 11.3 0.00 0.03 0.00 94 1017.9
20260906050323 22 69 6.4 12.9 0.00 0.03 0.00 95 1017.4
20260906044833 22 46 1.6 6.4 0.00 0.03 0.03 95 1017.2
20260906043320 22 346 0.0 6.4 0.00 0.03 0.03 94 1016.9
20260906041842 22 39 1.6 4.8 0.03 0.03 0.03 94 1017.0
20260906040333 22 6 1.6 4.8 0.03 0.03 0.03 93 1016.7
20260906034859 22 31 1.6 6.4 0.03 0.03 0.03 93 1016.7
20260906033342 23 349 1.6 8.0 0.03 0.03 0.03 93 1016.4
20260906031822 23 25 3.2 12.9 0.00 0.00 0.00 93 1016.2
20260906030333 23 15 0.0 4.8 0.00 0.00 0.00 93 1016.2
20260906024857 23 16 3.2 6.4 0.00 0.00 0.00 92 1016.2
20260906023320 24 20 3.2 6.4 0.00 0.00 0.00 91 1016.0
20260906021829 24 20 3.2 11.3 0.00 0.00 0.00 90 1016.1
20260906020355 25 28 8.0 14.5 0.00 0.00 0.00 89 1016.0
20260906014836 25 332 4.8 11.3 0.00 0.00 0.00 89 1015.8
20260906013322 25 20 4.8 11.3 0.00 0.00 0.00 89 1015.8
20260906011830 26 19 6.4 17.7 0.00 0.00 0.00 88 1015.6
20260906010355 26 20 8.0 19.3 0.00 0.00 0.00 87 1015.2
20260906004836 27 36 11.3 19.3 0.00 0.00 0.00 86 1015.1
20260906003326 27 19 9.7 16.1 0.00 0.00 0.00 85 1014.7
20260906001830 28 9 6.4 14.5 0.00 0.00 0.00 84 1014.7
20260906000338 28 30 9.7 16.1 0.00 0.00 0.00 82 1015.0
20260905233323 30 16 8.0 17.7 0.00 0.00 0.00 80 1014.8
20260905231823 31 13 9.7 17.7 0.00 0.00 0.00 77 1014.4
20260905230352 31 30 9.7 20.9 0.00 0.00 0.00 77 1014.3
20260905224834 32 23 9.7 19.3 0.00 0.00 0.00 75 1014.3
20260905223318 32 21 6.4 14.5 0.00 0.00 0.00 75 1014.3
20260905221824 32 22 9.7 20.9 0.00 0.00 0.00 73 1014.4
20260905220329 33 1 8.0 19.3 0.00 0.00 0.00 71 1014.3
20260905214833 33 49 6.4 12.9 0.00 0.00 0.00 72 1014.2
20260905213317 33 347 6.4 16.1 0.00 0.00 0.00 71 1014.3
20260905211845 33 356 3.2 12.9 0.00 0.00 0.00 73 1014.2
20260905210330 33 31 6.4 12.9 0.00 0.00 0.00 72 1014.1
20260905204835 33 7 6.4 17.7 0.00 0.00 0.00 70 1014.3
20260905203321 33 321 4.8 14.5 0.00 0.00 0.00 70 1014.5
20260905201821 33 301 3.2 12.9 0.00 0.00 0.00 71 1014.6
20260905200325 33 18 3.2 12.9 0.00 0.00 0.00 72 1014.7
20260905194832 33 20 6.4 12.9 0.00 0.00 0.00 73 1014.7
20260905193317 33 19 6.4 14.5 0.00 0.00 0.00 70 1014.6
20260905191817 32 9 4.8 14.5 0.00 0.00 0.00 74 1014.8
20260905190347 32 15 8.0 14.5 0.00 0.00 0.00 73 1015.0
20260905184847 33 13 6.4 12.9 0.00 0.00 0.00 71 1015.0
20260905183332 33 23 6.4 11.3 0.00 0.00 0.00 69 1015.2
20260905181835 33 17 3.2 11.3 0.00 0.00 0.00 73 1015.2
20260905180344 33 27 8.0 14.5 0.00 0.00 0.00 73 1015.1
20260905174826 33 20 3.2 9.7 0.00 0.00 0.00 72 1015.4
20260905173333 33 352 1.6 14.5 0.00 0.00 0.00 72 1015.5
20260905170319 32 33 6.4 16.1 0.00 0.00 0.00 73 1015.6
20260905164824 32 14 6.4 11.3 0.00 0.00 0.00 73 1015.8
20260905163334 32 6 9.7 12.9 0.00 0.00 0.00 72 1015.9
20260905161837 32 22 8.0 11.3 0.00 0.00 0.00 73 1015.9
20260905160322 32 302 3.2 12.9 0.00 0.00 0.00 72 1015.8
20260905154831 31 313 6.4 12.9 0.00 0.00 0.00 73 1015.7
20260905153336 31 17 3.2 8.0 0.00 0.00 0.00 74 1015.6
20260905151818 31 302 3.2 11.3 0.00 0.00 0.00 73 1015.6
20260905150326 31 34 4.8 9.7 0.00 0.00 0.00 74 1015.4
20260905144829 30 290 3.2 8.0 0.00 0.00 0.00 76 1015.4
20260905143335 30 295 1.6 9.7 0.00 0.00 0.00 75 1015.3
20260905141824 30 36 1.6 6.4 0.00 0.00 0.00 76 1015.2
20260905140330 30 25 1.6 6.4 0.00 0.00 0.00 78 1015.2
20260905134835 29 258 0.0 4.8 0.00 0.00 0.00 81 1015.1
20260905133343 28 275 0.0 3.2 0.00 0.00 0.00 83 1015.2
20260905131826 27 287 1.6 3.2 0.00 0.00 0.00 88 1015.2
20260905130334 26 172 0.0 0.0 0.00 0.00 0.00 93 1015.1
20260905124840 25 25 0.0 0.0 0.00 0.00 0.00 97 1014.8